Hourly Data Report for March 26, 2012

BAGOTVILLE A
QUEBEC

48°20'00.000" N
71°00'00.000" W
159.10 m
7060400
71727
YBG

Download Data

Hourly Data (March 2012)
Hourly Data Report for March 26, 2012
TIME
LST
Temp Definition
°C
Dew Point Definition
°C
Rel Hum Definition
%
Precip. Amount Definition
mm

Wind Dir Definition
10's deg

Wind Spd Definition
km/h
Visibility Definition
km
Stn Press Definition
kPa
Hmdx Definition


Wind Chill Definition


Weather Definition


00:00 -2.0 -7.4 66   31 37 16.1 98.61   -10 Snow Showers
01:00 -3.7 -10.2 61   31 37 16.1 98.71   -12 Snow Showers
02:00 -6.1 -12.9 59   30 37 24.1 98.78   -15 Snow Showers
03:00 -7.7 -12.5 68   30 37 4.8 98.82   -17 Snow Showers
04:00 -8.0 -14.3 60   29 39 16.1 98.87   -18 Snow Showers
05:00 -8.5 -13.6 67   29 35 16.1 98.90   -18 Snow Showers
06:00 -8.6 -14.2 64   29 46 24.1 98.93   -19 Mostly Cloudy
07:00 -8.6 -13.8 66   31 41 6.4 99.00   -19 Snow Showers
08:00 -8.4 -14.9 59   31 32 24.1 99.09   -18 Snow Showers
09:00 -8.0 -14.8 58   31 37 12.9 99.15   -18 Snow Showers
10:00 -8.1 -15.0 58   30 35 6.4 99.20   -18 Snow Showers
11:00 -7.5 -15.1 54   30 43 16.1 99.25   -18 Snow Showers
12:00 -6.2 -14.6 51   30 41 24.1 99.27   -16 Mostly Cloudy
13:00 -4.9 -12.9 53   30 41 40.2 99.28   -14 Mostly Cloudy
14:00 -4.6 -12.0 56   29 43 40.2 99.32   -14 Mostly Cloudy
15:00 -4.2 -13.2 49   33 35 32.2 99.38   -13 Cloudy
16:00 -4.5 -12.8 52   33 33 32.2 99.49   -13 Mostly Cloudy
17:00 -4.5 -13.7 49   32 41 40.2 99.60   -14 Mostly Cloudy
18:00 -4.4 -13.1 51   31 35 40.2 99.71   -13 Mostly Cloudy
19:00 -6.2 -16.8 43   31 32 24.1 99.86   -15 Mainly Clear
20:00 -7.2 -15.7 51   32 32 24.1 99.98   -16 Clear
21:00 -8.0 -15.4 55   31 30 24.1 100.06   -17 Clear
22:00 -9.0 -17.0 52   31 26 24.1 100.12   -18 Clear
23:00 -9.6 -13.7 72   31 28 24.1 100.16   -19 Clear

Notes on Data Quality.

Legend

  • E = Estimated
  • M = Missing
  • NA = Not Available*
  • [empty] = Indicates an unobserved value
Date modified: